Tracking 30995 objects as of 5-Jul-2025
HD Live streaming from Space Station
objects crossing your sky now

COSMOS 1934

Track COSMOS 1934 now!
10-day predictions
COSMOS 1934 is classified as:


NORAD ID: 18985
Int'l Code: 1988-023A
Perigee: 952.3 km
Apogee: 1,013.6 km
Inclination: 83.0 °
Period: 104.6 minutes
Semi major axis: 7353 km
RCS: 2.9931 m2 (large)
Launch date: March 22, 1988
Source: Commonwealth of Independent States (former USSR) (CIS)
Launch site: PLESETSK MISSILE AND SPACE COMPLEX (PKMTR)
Your satellite tracking list
PHOBOS-GRUNT
SUOMI NPP
Track 2 satellite(s)




NASA's NSSDC Master Catalog

Two Line Element Set (TLE):
1 18985U 88023A   25186.57348450  .00000045  00000-0  30519-4 0  9991
2 18985  82.9554  52.0438 0041673  20.1208 340.1580 13.76645317748577
Source of the keplerian elements: AFSPC